Location: Roanoke
(37.2710°N, 79.9420°W)
Time: 08:21:08
(UTC-05:00)

S-56A Canister/Altair - Pass Details

Date: 22 November 2019
Orbit: 632 x 2500 km, 38.9° (Epoch: 13 December)

Event Time Altitude Azimuth Distance (km) Brightness Sun altitude
Rises 20:49:40 0° 286° (WNW) 4,303 12.1 -44.3°
Reaches altitude 10° 20:53:04 10° 283° (WNW) 3,037 11.1 -45.0°
Enters shadow 20:55:41 22° 278° (W) 2,073 10.1 -45.5°
Maximum altitude 20:59:56 62° 205° (SSW) 960 - -46.3°
Drops below altitude 10° 21:04:49 10° 125° (SE) 2,179 - -47.3°
Sets 21:06:55 0° 121° (ESE) 3,001 - -47.7°
